Last 24 Hours

OV-Siberia 8700'

Hourly Data | America/Los_Angeles
as of 2/24/24 2:41 AM PST
Date & Time Temp (°F) RH (%) Dew Pt (°F) Wet Bulb (°F) Wind Dir (°) Wind Spd (mph) Wind Gust (mph) WindChill (°F) Daily Min Temp (°F) Daily Max Temp (°F)
2/24/24 - 0200 34.8 34 9.1 26.1 SW | 215 4.3 11.9 30.9 32.4 34.8
2/24/24 - 0100 33.6 40 11.9 26.0 SW | 215 5.1 11.5 28.9 32.4 33.9
2/24/24 - 0000 33.8 38 10.8 25.9 SW | 215 9.9 13.8 26.7 22.1 35.0
2/23/24 - 2300 34.1 37 10.6 26.0 SE | 129 9.1 17.1 25.8 22.1 35.0
2/23/24 - 2200 32.2 53 17.1 26.6 E | 83 16.9 20.4 19.4 22.1 33.1
2/23/24 - 2100 29.6 73 22.1 26.7 ENE | 69 18.5 23.8 16.5 22.1 31.1
2/23/24 - 2000 28.8 80 23.3 26.6 ENE | 66 19.1 22.9 16.2 22.1 31.1
2/23/24 - 1900 29.6 73 21.9 26.6 ENE | 60 18.4 22.8 16.8 22.1 31.1
2/23/24 - 1800 28.8 80 23.5 26.7 NE | 52 18.2 24.2 16.2 22.1 31.1
2/23/24 - 1700 29.2 78 23.2 26.8 NE | 54 18.9 28.1 17.4 22.1 31.1
2/23/24 - 1600 30.0 70 21.3 26.6 NE | 56 21.3 29.2 17.6 22.1 31.1
2/23/24 - 1500 30.4 61 18.4 25.9 NE | 53 18.1 26.9 18.0 22.1 30.7
2/23/24 - 1400 29.9 69 20.9 26.4 ENE | 59 20.9 30.2 16.2 22.1 30.1
2/23/24 - 1300 29.3 71 21.1 26.1 ENE | 67 20.2 31.9 15.4 22.1 29.3
2/23/24 - 1200 28.1 77 21.8 25.7 ENE | 69 22.2 31.4 13.6 22.1 28.1
2/23/24 - 1100 27.0 84 22.9 25.4 ENE | 71 24.5 34.4 11.8 22.1 27.6
2/23/24 - 1000 26.2 84 21.9 24.5 ENE | 72 24.7 36.9 10.5 22.1 26.3
2/23/24 - 0900 25.0 85 21.2 23.6 ENE | 70 25.3 41.7 8.9 22.1 25.3
2/23/24 - 0800 24.8 84 20.7 23.3 ENE | 62 29.6 41.0 7.4 22.1 25.3
2/23/24 - 0700 23.3 87 20.1 22.1 ENE | 70 20.0 29.7 9.5 22.1 25.2
2/23/24 - 0600 24.8 83 20.3 23.1 ENE | 75 12.8 17.0 13.1 22.1 25.0
2/23/24 - 0500 24.1 90 21.7 23.2 ESE | 104 5.4 15.2 17.9 22.1 24.1
2/23/24 - 0400 22.6 91 20.3 21.7 SE | 143 3.3 8.0 18.8 22.1 23.7
2/23/24 - 0300 22.3 93 20.7 21.7 S | 171 11.9 15.8 10.7 22.1 23.7
2/23/24 - 0200 22.7 94 21.1 22.1 S | 175 13.0 16.5 10.8 22.6 23.7
Max 34.8 94 23.5 26.8 - 29.6 41.7 30.9 32.4 35.0
Avg 28.2 72 19.5 25.0 - 16.5 24.1 16.6 - -
Min 22.3 34 9.1 21.7 - 3.3 8.0 7.4 22.1 23.7